QPF
0.01 0.01 0.02 0.03 0.02 0.01 0.02 0.03 0.04 0.03 0.03 0.02 0.02 0.02 0.01 0.01 0.00 0.00 0.00 0.00 0.00 0.00 0.01 0.01 0.01 0.01 0.01 0.01 0.01 0.01 0.01 0.02 0.02 0.02 0.01 0.01 0.01 0.01 0.00 0.00 0.00 0.00 0.00 0.00
0.01 0.01 0.01 0.02 0.02 0.02 0.02 0.02 0.02 0.02 0.03 0.03 0.03 0.02 0.01 0.01 0.00 0.00 0.00 0.00 0.00 0.00 0.01 0.01 0.01 0.01 0.02 0.02 0.01 0.01 0.02 0.01 0.01 0.01 0.01 0.01 0.00 0.00 0.00 0.00 0.00 0.00 0.00 0.00
0.01 0.01 0.00 0.02 0.02 0.03 0.03 0.03 0.02 0.02 0.02 0.02 0.02 0.02 0.03 0.02 0.01 0.00 0.00 0.00 0.01 0.01 0.01 0.01 0.01 0.01 0.02 0.02 0.02 0.01 0.01 0.01 0.01 0.00 0.00 0.00 0.00 0.00 0.00 0.00 0.00 0.00 0.00 0.00
0.01 0.01 0.02 0.02 0.02 0.02 0.03 0.03 0.03 0.02 0.02 0.02 0.02 0.02 0.03 0.03 0.02 0.01 0.01 0.01 0.01 0.01 0.01 0.01 0.01 0.01 0.01 0.01 0.01 0.01 0.01 0.01 0.01 0.00 0.00 0.00 0.00 0.00 0.00 0.00 0.00 0.00 0.00 0.00
0.01 0.01 0.02 0.02 0.01 0.02 0.02 0.03 0.03 0.02 0.02 0.01 0.01 0.01 0.02 0.03 0.02 0.02 0.02 0.02 0.01 0.01 0.01 0.01 0.01 0.01 0.01 0.01 0.01 0.02 0.01 0.01 0.01 0.01 0.00 0.00 0.00 0.00 0.00 0.00 0.00 0.00 0.00 0.00
0.01 0.01 0.01 0.02 0.01 0.01 0.02 0.02 0.02 0.02 0.02 0.02 0.01 0.01 0.02 0.02 0.02 0.02 0.02 0.01 0.01 0.01 0.01 0.00 0.01 0.01 0.01 0.01 0.01 0.02 0.01 0.01 0.01 0.01 0.01 0.00 0.00 0.00 0.00 0.00 0.00 0.00 0.00 0.00
0.01 0.01 0.01 0.01 0.00 0.01 0.01 0.02 0.02 0.02 0.02 0.02 0.02 0.02 0.02 0.02 0.02 0.01 0.01 0.01 0.01 0.00 0.00 0.01 0.01 0.01 0.01 0.01 0.01 0.02 0.02 0.01 0.01 0.01 0.00 0.00 0.00 0.00 0.00 0.00 0.00 0.00 0.00 0.00
0.01 0.02 0.01 0.01 0.01 0.01 0.02 0.02 0.02 0.02 0.02 0.02 0.02 0.01 0.01 0.01 0.01 0.01 0.01 0.01 0.01 0.01 0.01 0.01 0.01 0.01 0.01 0.01 0.01 0.02 0.02 0.02 0.01 0.01 0.01 0.00 0.00 0.00 0.00 0.00 0.00 0.00 0.00 0.00
0.02 0.03 0.02 0.01 0.02 0.02 0.02 0.01 0.02 0.02 0.02 0.02 0.02 0.01 0.01 0.01 0.01 0.01 0.01 0.01 0.01 0.01 0.01 0.01 0.01 0.01 0.01 0.01 0.02 0.02 0.03 0.02 0.02 0.02 0.01 0.01 0.01 0.01 0.00 0.00 0.00 0.00 0.00 0.00
0.01 0.02 0.01 0.01 0.01 0.01 0.01 0.01 0.01 0.01 0.01 0.01 0.01 0.01 0.01 0.01 0.01 0.01 0.01 0.01 0.02 0.02 0.02 0.02 0.02 0.03 0.03 0.03 0.03 0.03 0.03 0.03 0.02 0.02 0.02 0.02 0.02 0.01 0.01 0.01 0.01 0.00 0.00 0.00
0.01 0.01 0.01 0.00 0.01 0.01 0.01 0.01 0.01 0.01 0.01 0.01 0.01 0.01 0.01 0.01 0.01 0.01 0.01 0.01 0.02 0.02 0.02 0.02 0.02 0.02 0.03 0.03 0.03 0.03 0.03 0.02 0.02 0.02 0.02 0.02 0.02 0.02 0.02 0.01 0.01 0.01 0.01 0.00
0.01 0.00 0.01 0.01 0.01 0.01 0.01 0.01 0.01 0.01 0.01 0.01 0.01 0.01 0.01 0.01 0.01 0.01 0.01 0.01 0.02 0.03 0.03 0.03 0.02 0.03 0.02 0.02 0.02 0.03 0.03 0.03 0.02 0.01 0.01 0.01 0.02 0.02 0.02 0.02 0.01 0.01 0.01 0.01
0.01 0.01 0.01 0.01 0.01 0.01 0.01 0.01 0.01 0.01 0.01 0.01 0.01 0.01 0.01 0.01 0.01 0.01 0.01 0.02 0.03 0.03 0.03 0.03 0.02 0.02 0.02 0.02 0.02 0.02 0.03 0.02 0.02 0.02 0.02 0.02 0.02 0.02 0.02 0.02 0.01 0.01 0.01 0.01
0.01 0.01 0.00 0.00 0.01 0.01 0.01 0.01 0.01 0.01 0.01 0.01 0.01 0.01 0.01 0.01 0.01 0.01 0.01 0.02 0.02 0.03 0.03 0.03 0.02 0.02 0.02 0.02 0.02 0.02 0.02 0.02 0.01 0.01 0.01 0.01 0.01 0.02 0.01 0.01 0.01 0.01 0.01 0.01
0.00 0.01 0.01 0.01 0.01 0.01 0.01 0.01 0.01 0.01 0.01 0.01 0.01 0.01 0.01 0.01 0.01 0.01 0.02 0.02 0.02 0.03 0.03 0.03 0.02 0.02 0.01 0.01 0.02 0.03 0.03 0.02 0.02 0.01 0.01 0.01 0.01 0.01 0.01 0.01 0.01 0.01 0.01 0.01
0.00 0.00 0.00 0.00 0.00 0.00 0.00 0.00 0.00 0.01 0.01 0.01 0.01 0.01 0.02 0.01 0.01 0.01 0.02 0.02 0.02 0.03 0.03 0.03 0.03 0.02 0.02 0.01 0.02 0.03 0.03 0.03 0.03 0.02 0.02 0.01 0.01 0.01 0.01 0.00 0.00 0.00 0.00 0.00
0.00 0.00 0.00 0.00 0.00 0.00 0.00 0.01 0.01 0.01 0.01 0.01 0.02 0.01 0.01 0.01 0.01 0.01 0.02 0.02 0.02 0.03 0.03 0.03 0.03 0.03 0.02 0.02 0.02 0.03 0.03 0.02 0.02 0.02 0.02 0.02 0.02 0.01 0.01 0.01 0.01 0.00 0.00 0.00
0.00 0.00 0.00 0.00 0.00 0.00 0.01 0.01 0.01 0.01 0.01 0.02 0.02 0.01 0.01 0.01 0.01 0.01 0.02 0.02 0.03 0.03 0.03 0.02 0.02 0.02 0.02 0.03 0.03 0.03 0.03 0.02 0.02 0.02 0.02 0.02 0.02 0.02 0.02 0.01 0.01 0.01 0.01 0.01
0.00 0.00 0.00 0.00 0.01 0.01 0.01 0.01 0.01 0.01 0.01 0.02 0.01 0.01 0.01 0.02 0.02 0.02 0.02 0.03 0.03 0.03 0.03 0.02 0.02 0.02 0.02 0.02 0.02 0.02 0.02 0.02 0.02 0.02 0.01 0.01 0.01 0.01 0.01 0.01 0.01 0.01 0.01 0.01
0.00 0.00 0.00 0.00 0.01 0.01 0.01 0.01 0.01 0.01 0.01 0.02 0.02 0.02 0.02 0.02 0.03 0.02 0.02 0.02 0.02 0.03 0.02 0.02 0.02 0.02 0.02 0.02 0.02 0.02 0.02 0.02 0.01 0.01 0.01 0.01 0.01 0.01 0.01 0.01 0.01 0.01 0.01 0.01
0.00 0.00 0.01 0.00 0.01 0.01 0.01 0.01 0.01 0.01 0.01 0.02 0.02 0.02 0.02 0.03 0.03 0.03 0.02 0.02 0.02 0.02 0.02 0.02 0.02 0.02 0.02 0.02 0.02 0.02 0.02 0.02 0.01 0.01 0.01 0.01 0.01 0.01 0.01 0.01 0.01 0.01 0.01 0.01
0.00 0.01 0.01 0.01 0.01 0.01 0.01 0.01 0.01 0.01 0.01 0.02 0.02 0.02 0.02 0.03 0.03 0.02 0.02 0.02 0.02 0.02 0.02 0.02 0.02 0.02 0.02 0.02 0.02 0.02 0.01 0.01 0.01 0.01 0.01 0.01 0.01 0.01 0.01 0.01 0.01 0.01 0.01 0.01
0.00 0.01 0.01 0.01 0.01 0.01 0.01 0.01 0.01 0.01 0.01 0.01 0.01 0.02 0.02 0.02 0.02 0.02 0.02 0.02 0.02 0.02 0.02 0.02 0.02 0.02 0.01 0.01 0.01 0.01 0.01 0.01 0.01 0.01 0.01 0.01 0.01 0.01 0.01 0.01 0.01 0.01 0.01 0.01
0.01 0.01 0.01 0.01 0.01 0.00 0.01 0.00 0.00 0.01 0.01 0.01 0.01 0.01 0.01 0.02 0.02 0.02 0.02 0.02 0.02 0.02 0.02 0.02 0.02 0.01 0.01 0.01 0.01 0.01 0.01 0.01 0.00 0.00 0.00 0.01 0.01 0.01 0.01 0.01 0.01 0.01 0.01 0.01
0.01 0.01 0.01 0.01 0.01 0.01 0.01 0.00 0.00 0.00 0.01 0.01 0.01 0.01 0.01 0.02 0.02 0.02 0.01 0.01 0.01 0.01 0.01 0.01 0.01 0.01 0.01 0.01 0.01 0.01 0.01 0.01 0.01 0.01 0.01 0.00 0.00 0.01 0.01 0.01 0.01 0.01 0.01 0.01
0.00 0.01 0.01 0.01 0.01 0.01 0.01 0.01 0.01 0.01 0.01 0.01 0.02 0.02 0.01 0.01 0.01 0.01 0.02 0.02 0.02 0.01 0.01 0.01 0.01 0.01 0.01 0.01 0.01 0.01 0.01 0.01 0.01 0.01 0.01 0.01 0.01 0.01 0.01 0.01 0.01 0.01 0.01 0.01
0.00 0.00 0.00 0.01 0.01 0.01 0.01 0.01 0.01 0.01 0.01 0.01 0.01 0.01 0.02 0.02 0.01 0.02 0.02 0.02 0.02 0.02 0.02 0.02 0.01 0.01 0.01 0.01 0.01 0.01 0.01 0.01 0.01 0.01 0.01 0.01 0.01 0.01 0.01 0.01 0.01 0.01 0.01 0.01
MSLP
1021.97 1021.27 1020.54 1019.77 1018.93 1018.01 1017.01 1015.94 1014.82 1013.73 1012.71 1011.85 1011.21 1010.84 1010.76 1010.96 1011.41 1012.07 1012.88 1013.78 1014.72 1015.65 1016.58 1017.48 1018.38 1019.29 1020.20 1021.13 1022.06 1022.96 1023.82 1024.61 1025.29 1025.87 1026.33 1026.68 1026.95 1027.16 1027.32 1027.44 1027.54 1027.60 1027.60 1027.56
1022.10 1021.33 1020.52 1019.64 1018.69 1017.66 1016.57 1015.45 1014.33 1013.27 1012.35 1011.60 1011.11 1010.89 1010.94 1011.26 1011.80 1012.50 1013.32 1014.20 1015.10 1015.99 1016.86 1017.71 1018.56 1019.42 1020.30 1021.20 1022.09 1022.97 1023.81 1024.57 1025.24 1025.80 1026.25 1026.61 1026.88 1027.10 1027.27 1027.40 1027.50 1027.56 1027.56 1027.50
1021.92 1021.09 1020.21 1019.27 1018.25 1017.17 1016.04 1014.90 1013.80 1012.79 1011.92 1011.27 1010.86 1010.72 1010.85 1011.22 1011.80 1012.53 1013.36 1014.24 1015.13 1016.02 1016.90 1017.76 1018.63 1019.50 1020.38 1021.28 1022.16 1023.02 1023.83 1024.56 1025.20 1025.74 1026.18 1026.53 1026.81 1027.04 1027.22 1027.36 1027.47 1027.53 1027.54 1027.48
1021.54 1020.68 1019.76 1018.80 1017.77 1016.68 1015.57 1014.45 1013.38 1012.40 1011.57 1010.94 1010.55 1010.42 1010.55 1010.91 1011.46 1012.17 1013.00 1013.88 1014.81 1015.74 1016.68 1017.61 1018.55 1019.48 1020.42 1021.34 1022.24 1023.08 1023.87 1024.57 1025.17 1025.69 1026.11 1026.46 1026.75 1026.99 1027.19 1027.35 1027.48 1027.55 1027.56 1027.49
1021.14 1020.26 1019.35 1018.41 1017.42 1016.38 1015.32 1014.24 1013.20 1012.24 1011.41 1010.75 1010.32 1010.12 1010.17 1010.44 1010.93 1011.58 1012.37 1013.27 1014.23 1015.23 1016.26 1017.30 1018.35 1019.38 1020.40 1021.37 1022.30 1023.15 1023.91 1024.59 1025.17 1025.66 1026.07 1026.41 1026.71 1026.97 1027.19 1027.38 1027.52 1027.60 1027.62 1027.56
1020.87 1020.00 1019.13 1018.25 1017.34 1016.39 1015.39 1014.38 1013.37 1012.41 1011.54 1010.82 1010.28 1009.96 1009.87 1010.01 1010.37 1010.94 1011.68 1012.56 1013.55 1014.63 1015.76 1016.92 1018.08 1019.23 1020.33 1021.38 1022.34 1023.20 1023.96 1024.62 1025.17 1025.64 1026.05 1026.40 1026.70 1026.98 1027.22 1027.43 1027.59 1027.69 1027.71 1027.65
1020.80 1019.98 1019.19 1018.40 1017.59 1016.73 1015.82 1014.87 1013.89 1012.91 1012.00 1011.18 1010.51 1010.03 1009.78 1009.75 1009.97 1010.42 1011.08 1011.94 1012.95 1014.08 1015.30 1016.56 1017.84 1019.08 1020.27 1021.37 1022.37 1023.24 1024.00 1024.65 1025.19 1025.66 1026.06 1026.41 1026.73 1027.03 1027.29 1027.51 1027.68 1027.79 1027.81 1027.74
1020.98 1020.23 1019.53 1018.84 1018.13 1017.37 1016.54 1015.64 1014.68 1013.68 1012.71 1011.79 1011.00 1010.37 1009.95 1009.77 1009.84 1010.18 1010.76 1011.57 1012.58 1013.74 1015.01 1016.34 1017.69 1019.00 1020.24 1021.38 1022.40 1023.29 1024.05 1024.69 1025.23 1025.69 1026.09 1026.46 1026.79 1027.10 1027.37 1027.60 1027.77 1027.87 1027.88 1027.82
1021.34 1020.68 1020.08 1019.48 1018.86 1018.17 1017.40 1016.53 1015.58 1014.57 1013.55 1012.56 1011.67 1010.92 1010.38 1010.08 1010.04 1010.28 1010.79 1011.55 1012.54 1013.70 1014.98 1016.33 1017.70 1019.04 1020.29 1021.44 1022.46 1023.34 1024.09 1024.73 1025.27 1025.74 1026.15 1026.53 1026.87 1027.18 1027.46 1027.68 1027.84 1027.93 1027.93 1027.85
1021.83 1021.25 1020.71 1020.17 1019.60 1018.95 1018.21 1017.36 1016.42 1015.41 1014.37 1013.35 1012.42 1011.62 1011.02 1010.66 1010.56 1010.74 1011.20 1011.92 1012.86 1013.99 1015.24 1016.56 1017.90 1019.20 1020.43 1021.55 1022.54 1023.40 1024.14 1024.78 1025.32 1025.80 1026.23 1026.62 1026.97 1027.28 1027.55 1027.76 1027.89 1027.96 1027.94 1027.85
1022.34 1021.81 1021.31 1020.78 1020.21 1019.56 1018.82 1017.98 1017.04 1016.05 1015.03 1014.04 1013.13 1012.37 1011.79 1011.44 1011.34 1011.52 1011.95 1012.64 1013.53 1014.60 1015.78 1017.02 1018.28 1019.50 1020.65 1021.70 1022.64 1023.47 1024.20 1024.83 1025.38 1025.87 1026.32 1026.72 1027.07 1027.38 1027.63 1027.82 1027.93 1027.96 1027.92 1027.82
1022.81 1022.30 1021.77 1021.21 1020.60 1019.91 1019.14 1018.28 1017.37 1016.42 1015.47 1014.57 1013.76 1013.10 1012.62 1012.36 1012.33 1012.54 1012.99 1013.64 1014.48 1015.47 1016.54 1017.66 1018.79 1019.89 1020.93 1021.89 1022.77 1023.55 1024.25 1024.87 1025.44 1025.94 1026.41 1026.82 1027.18 1027.48 1027.72 1027.88 1027.97 1027.97 1027.91 1027.80
1023.21 1022.66 1022.07 1021.44 1020.74 1019.99 1019.17 1018.31 1017.43 1016.55 1015.71 1014.95 1014.31 1013.81 1013.49 1013.37 1013.45 1013.73 1014.20 1014.84 1015.62 1016.50 1017.44 1018.42 1019.40 1020.35 1021.26 1022.11 1022.90 1023.63 1024.30 1024.92 1025.49 1026.02 1026.50 1026.93 1027.30 1027.60 1027.82 1027.96 1028.02 1028.00 1027.93 1027.81
1023.52 1022.90 1022.22 1021.48 1020.70 1019.87 1019.02 1018.16 1017.33 1016.55 1015.86 1015.27 1014.82 1014.53 1014.40 1014.44 1014.65 1015.01 1015.51 1016.13 1016.84 1017.60 1018.41 1019.23 1020.04 1020.84 1021.61 1022.35 1023.05 1023.73 1024.37 1024.98 1025.56 1026.11 1026.61 1027.05 1027.42 1027.72 1027.93 1028.05 1028.09 1028.07 1027.99 1027.87
1023.76 1023.05 1022.27 1021.44 1020.56 1019.68 1018.80 1017.98 1017.22 1016.56 1016.03 1015.64 1015.40 1015.31 1015.37 1015.57 1015.90 1016.33 1016.85 1017.43 1018.06 1018.71 1019.37 1020.03 1020.69 1021.34 1021.98 1022.61 1023.24 1023.86 1024.48 1025.08 1025.67 1026.22 1026.73 1027.18 1027.56 1027.85 1028.05 1028.17 1028.20 1028.17 1028.10 1028.00
1023.95 1023.16 1022.28 1021.37 1020.44 1019.53 1018.67 1017.90 1017.24 1016.72 1016.35 1016.14 1016.09 1016.19 1016.41 1016.74 1017.16 1017.64 1018.15 1018.68 1019.22 1019.76 1020.28 1020.80 1021.32 1021.84 1022.37 1022.91 1023.48 1024.06 1024.65 1025.24 1025.83 1026.38 1026.89 1027.34 1027.71 1027.99 1028.19 1028.30 1028.34 1028.31 1028.25 1028.17
1024.08 1023.22 1022.30 1021.35 1020.40 1019.51 1018.71 1018.02 1017.48 1017.10 1016.89 1016.84 1016.95 1017.18 1017.52 1017.94 1018.40 1018.88 1019.36 1019.83 1020.28 1020.71 1021.12 1021.52 1021.93 1022.35 1022.80 1023.29 1023.80 1024.35 1024.92 1025.50 1026.07 1026.61 1027.10 1027.53 1027.88 1028.15 1028.33 1028.44 1028.48 1028.47 1028.43 1028.36
1024.16 1023.27 1022.34 1021.40 1020.49 1019.67 1018.95 1018.38 1017.96 1017.72 1017.64 1017.72 1017.94 1018.26 1018.66 1019.10 1019.56 1020.02 1020.45 1020.85 1021.21 1021.55 1021.88 1022.20 1022.53 1022.90 1023.30 1023.75 1024.23 1024.76 1025.30 1025.85 1026.39 1026.90 1027.36 1027.75 1028.07 1028.31 1028.48 1028.58 1028.62 1028.62 1028.60 1028.56
1024.16 1023.29 1022.40 1021.52 1020.71 1019.98 1019.39 1018.94 1018.65 1018.52 1018.55 1018.72 1019.00 1019.36 1019.76 1020.19 1020.61 1021.01 1021.38 1021.71 1022.01 1022.29 1022.56 1022.84 1023.15 1023.49 1023.88 1024.31 1024.78 1025.28 1025.80 1026.31 1026.80 1027.26 1027.66 1028.00 1028.27 1028.47 1028.61 1028.70 1028.74 1028.75 1028.74 1028.72
1024.11 1023.29 1022.48 1021.70 1021.00 1020.41 1019.95 1019.63 1019.46 1019.43 1019.54 1019.75 1020.05 1020.40 1020.78 1021.16 1021.53 1021.86 1022.17 1022.45 1022.70 1022.95 1023.20 1023.48 1023.79 1024.14 1024.53 1024.96 1025.42 1025.90 1026.38 1026.84 1027.28 1027.66 1028.00 1028.26 1028.47 1028.62 1028.73 1028.79 1028.83 1028.84 1028.85 1028.84
1024.04 1023.30 1022.59 1021.93 1021.37 1020.91 1020.58 1020.38 1020.31 1020.36 1020.52 1020.75 1021.04 1021.36 1021.69 1022.01 1022.32 1022.60 1022.85 1023.09 1023.33 1023.57 1023.84 1024.13 1024.46 1024.83 1025.24 1025.67 1026.12 1026.57 1027.00 1027.40 1027.76 1028.07 1028.32 1028.52 1028.66 1028.76 1028.82 1028.86 1028.88 1028.90 1028.91 1028.92
1023.99 1023.34 1022.74 1022.22 1021.78 1021.46 1021.25 1021.16 1021.17 1021.27 1021.45 1021.68 1021.95 1022.23 1022.51 1022.78 1023.03 1023.26 1023.49 1023.71 1023.95 1024.20 1024.49 1024.81 1025.17 1025.57 1025.98 1026.41 1026.84 1027.24 1027.62 1027.95 1028.23 1028.45 1028.62 1028.74 1028.81 1028.86 1028.89 1028.91 1028.92 1028.93 1028.95 1028.96
1024.03 1023.48 1022.99 1022.58 1022.27 1022.06 1021.95 1021.94 1022.01 1022.16 1022.35 1022.58 1022.82 1023.06 1023.30 1023.52 1023.73 1023.94 1024.15 1024.37 1024.62 1024.90 1025.21 1025.55 1025.93 1026.33 1026.74 1027.14 1027.52 1027.87 1028.18 1028.43 1028.63 1028.77 1028.86 1028.91 1028.94 1028.94 1028.94 1028.95 1028.95 1028.96 1028.97 1028.98
1024.20 1023.74 1023.35 1023.05 1022.84 1022.72 1022.70 1022.75 1022.88 1023.04 1023.25 1023.47 1023.69 1023.91 1024.12 1024.32 1024.51 1024.70 1024.91 1025.14 1025.39 1025.68 1026.00 1026.35 1026.72 1027.10 1027.48 1027.83 1028.15 1028.43 1028.66 1028.83 1028.95 1029.01 1029.04 1029.05 1029.03 1029.01 1029.00 1028.99 1028.99 1029.00 1029.00 1029.00
1024.54 1024.16 1023.86 1023.64 1023.52 1023.48 1023.52 1023.63 1023.78 1023.98 1024.19 1024.41 1024.63 1024.83 1025.03 1025.22 1025.40 1025.60 1025.81 1026.04 1026.29 1026.58 1026.89 1027.22 1027.55 1027.88 1028.19 1028.48 1028.72 1028.91 1029.05 1029.14 1029.19 1029.20 1029.19 1029.15 1029.12 1029.09 1029.07 1029.06 1029.06 1029.06 1029.05 1029.03
1025.02 1024.72 1024.50 1024.36 1024.30 1024.32 1024.42 1024.57 1024.75 1024.97 1025.20 1025.42 1025.64 1025.85 1026.05 1026.24 1026.43 1026.63 1026.84 1027.07 1027.31 1027.57 1027.85 1028.12 1028.40 1028.65 1028.88 1029.07 1029.22 1029.33 1029.39 1029.40 1029.39 1029.36 1029.31 1029.26 1029.21 1029.18 1029.16 1029.15 1029.15 1029.14 1029.12 1029.07
1025.60 1025.37 1025.22 1025.15 1025.15 1025.23 1025.37 1025.55 1025.76 1026.00 1026.24 1026.48 1026.71 1026.93 1027.14 1027.34 1027.54 1027.75 1027.95 1028.17 1028.39 1028.62 1028.84 1029.05 1029.25 1029.41 1029.55 1029.64 1029.70 1029.72 1029.70 1029.66 1029.59 1029.52 1029.45 1029.39 1029.34 1029.31 1029.28 1029.27 1029.25 1029.23 1029.19 1029.11
Thickness
5386 5393 5395 5397 5400 5402 5404 5407 5409 5418 5420 5423 5421 5422 5425 5427 5431 5435 5439 5443 5446 5449 5453 5458 5464 5470 5476 5482 5487 5491 5495 5498 5502 5505 5506 5508 5508 5509 5509 5509 5509 5508 5507 5506
5382 5394 5395 5394 5396 5398 5401 5402 5402 5407 5409 5411 5410 5412 5414 5416 5421 5425 5428 5432 5435 5439 5443 5447 5453 5459 5465 5471 5476 5480 5483 5487 5490 5494 5495 5497 5498 5498 5498 5498 5498 5497 5497 5496
5370 5379 5385 5381 5382 5386 5390 5391 5394 5398 5401 5400 5401 5404 5404 5407 5411 5413 5417 5421 5425 5429 5432 5437 5442 5447 5453 5459 5464 5468 5472 5475 5479 5483 5485 5486 5488 5487 5487 5486 5487 5486 5486 5486
5357 5362 5364 5375 5378 5380 5382 5381 5382 5386 5388 5389 5392 5395 5396 5399 5400 5402 5406 5412 5416 5419 5423 5428 5432 5437 5443 5448 5453 5457 5461 5464 5468 5472 5474 5475 5476 5476 5476 5476 5476 5475 5475 5475
5344 5346 5357 5371 5374 5372 5373 5374 5373 5377 5380 5382 5384 5388 5390 5392 5392 5394 5397 5401 5405 5410 5415 5420 5424 5428 5433 5437 5441 5446 5449 5452 5457 5460 5463 5464 5465 5465 5465 5465 5464 5464 5464 5464
5335 5343 5351 5364 5367 5367 5368 5367 5368 5369 5371 5372 5375 5375 5381 5384 5384 5386 5389 5392 5397 5402 5407 5412 5416 5420 5423 5426 5430 5434 5438 5442 5445 5449 5452 5454 5454 5454 5455 5455 5454 5454 5454 5454
5330 5331 5344 5356 5357 5363 5359 5362 5360 5361 5363 5364 5364 5366 5371 5374 5375 5377 5380 5384 5389 5393 5397 5401 5406 5410 5413 5416 5419 5423 5428 5431 5434 5438 5441 5443 5444 5444 5444 5444 5444 5443 5443 5443
5321 5327 5341 5351 5351 5350 5350 5351 5353 5354 5356 5357 5357 5360 5363 5365 5366 5368 5371 5375 5379 5384 5387 5390 5394 5399 5402 5405 5409 5413 5417 5420 5424 5427 5430 5432 5432 5432 5433 5433 5433 5432 5432 5432
5328 5339 5342 5342 5343 5343 5343 5344 5347 5347 5348 5349 5350 5351 5353 5355 5357 5359 5362 5366 5370 5374 5378 5380 5383 5388 5391 5395 5399 5403 5406 5409 5412 5415 5418 5420 5421 5421 5422 5422 5423 5423 5423 5422
5326 5335 5336 5336 5336 5337 5338 5339 5340 5341 5341 5342 5341 5342 5343 5346 5348 5350 5354 5357 5361 5364 5368 5370 5373 5377 5381 5386 5389 5393 5395 5398 5402 5404 5406 5408 5409 5410 5411 5412 5413 5413 5414 5413
5323 5330 5331 5334 5332 5332 5333 5334 5334 5335 5335 5335 5335 5336 5336 5337 5340 5342 5346 5349 5352 5355 5358 5361 5365 5369 5372 5377 5380 5383 5386 5388 5390 5393 5395 5396 5398 5399 5400 5402 5404 5405 5404 5404
5327 5328 5324 5327 5328 5327 5327 5327 5328 5328 5328 5328 5329 5329 5330 5330 5332 5335 5338 5341 5344 5347 5350 5353 5357 5361 5365 5369 5372 5375 5376 5378 5380 5382 5384 5385 5387 5388 5389 5391 5393 5394 5394 5395
5328 5326 5323 5324 5322 5321 5320 5321 5322 5322 5322 5321 5322 5322 5323 5324 5326 5328 5331 5334 5337 5340 5342 5345 5349 5353 5357 5360 5364 5366 5368 5369 5370 5372 5374 5375 5376 5378 5378 5379 5381 5382 5383 5384
5323 5321 5319 5318 5317 5316 5315 5316 5315 5314 5314 5314 5315 5316 5316 5318 5320 5322 5324 5327 5329 5332 5335 5338 5341 5344 5348 5351 5354 5356 5358 5360 5361 5362 5364 5365 5366 5368 5369 5370 5369 5369 5371 5373
5318 5316 5315 5313 5312 5310 5309 5308 5307 5306 5305 5306 5307 5308 5310 5312 5313 5315 5317 5320 5323 5325 5327 5330 5332 5335 5339 5342 5345 5346 5348 5350 5351 5353 5354 5356 5357 5358 5359 5359 5360 5360 5361 5362
5313 5311 5308 5306 5305 5304 5302 5301 5299 5299 5299 5299 5300 5301 5303 5305 5306 5308 5310 5313 5315 5317 5319 5322 5325 5327 5330 5333 5335 5337 5338 5341 5343 5344 5345 5346 5348 5349 5350 5350 5350 5351 5351 5351
5307 5306 5303 5300 5299 5297 5296 5295 5295 5294 5293 5294 5294 5295 5296 5297 5299 5301 5302 5305 5307 5309 5311 5314 5316 5319 5322 5324 5326 5328 5330 5332 5334 5335 5336 5338 5339 5340 5341 5341 5342 5342 5342 5343
5306 5305 5302 5298 5296 5293 5292 5291 5290 5289 5289 5289 5288 5288 5289 5290 5291 5293 5295 5297 5299 5301 5304 5306 5309 5311 5314 5316 5317 5319 5321 5322 5324 5326 5327 5329 5330 5331 5332 5333 5333 5333 5333 5334
5302 5299 5297 5294 5292 5289 5288 5286 5285 5284 5283 5283 5283 5282 5282 5283 5285 5286 5287 5289 5292 5294 5296 5299 5303 5304 5306 5308 5310 5311 5312 5314 5315 5317 5318 5320 5321 5322 5323 5323 5324 5325 5325 5326
5297 5295 5291 5288 5286 5284 5282 5281 5279 5278 5277 5277 5276 5276 5277 5277 5278 5279 5281 5283 5285 5287 5290 5293 5295 5297 5298 5300 5302 5303 5304 5305 5306 5308 5309 5310 5312 5313 5314 5315 5316 5317 5317 5317
5292 5289 5286 5283 5280 5278 5276 5275 5273 5272 5271 5271 5270 5271 5271 5272 5272 5273 5275 5277 5279 5282 5284 5287 5288 5290 5291 5293 5295 5295 5296 5297 5298 5299 5301 5302 5303 5304 5305 5306 5307 5308 5309 5309
5286 5283 5280 5277 5274 5271 5269 5268 5267 5266 5265 5264 5264 5264 5265 5266 5266 5267 5269 5271 5274 5277 5278 5280 5282 5284 5285 5287 5287 5288 5289 5290 5291 5292 5293 5294 5295 5296 5297 5298 5299 5301 5301 5302
5281 5278 5274 5271 5268 5266 5263 5261 5260 5259 5259 5258 5258 5258 5259 5260 5261 5262 5264 5266 5269 5271 5273 5275 5277 5279 5280 5281 5281 5282 5283 5284 5285 5286 5287 5287 5289 5289 5290 5292 5293 5294 5295 5295
5274 5271 5268 5264 5261 5259 5257 5256 5255 5254 5253 5253 5253 5253 5254 5255 5256 5257 5259 5262 5264 5266 5267 5269 5272 5274 5275 5274 5275 5276 5277 5278 5279 5280 5281 5281 5282 5283 5285 5286 5287 5288 5289 5290
5269 5265 5261 5258 5256 5255 5254 5251 5249 5248 5247 5247 5248 5249 5250 5251 5252 5253 5255 5257 5260 5261 5262 5264 5266 5268 5269 5269 5270 5271 5272 5273 5274 5275 5275 5276 5277 5279 5280 5281 5282 5283 5284 5285
5263 5260 5257 5255 5253 5251 5249 5247 5245 5245 5244 5244 5244 5245 5246 5247 5248 5249 5251 5252 5254 5256 5257 5258 5260 5262 5263 5264 5265 5266 5267 5268 5269 5270 5271 5272 5273 5274 5276 5277 5278 5279 5280 5281
5258 5255 5252 5250 5248 5247 5245 5244 5242 5241 5241 5242 5241 5242 5243 5244 5245 5245 5247 5248 5249 5251 5252 5254 5255 5257 5258 5259 5260 5261 5263 5264 5265 5265 5267 5268 5269 5271 5272 5273 5274 5276 5277 5278